SL-24 DEB

Satellite information

Favourite Embed

Satellite Type and Status

DEBRISIN ORBIT

Key statistics

Satellite SL-24 DEB at a glance.

Uptime

7837

Days in orbit

Revolutions

≈ 14.1

Per day

Orbit

SSO

Sun Synchronous Orbit

Inclination

98.2

Latest

Satellite identification and parameters

Extended collection of information and parameters for SL-24 DEB.

Object identification

Identified? True

Debris? True

Object name: SL-24 DEB

International designator: 2004-025L

Object number (NORAD): 37586

Object ID (CCSDS): 37586

Country: COMMONWEALTH OF INDEPENDENT STATES (CIS)

Current information (Y/N): Y

RCS size: SMALL

Orbital parameters

Period: 102.212 minutes

Inclination: 98.1687 deg

SMA: 7241.482 km

Apoapsis: 1072.106 km

Periapsis: 654.588 km

RAAN: 18.0884 deg

Eccentricy: 0.0288282

Argument of periapsis: 198.7853 deg

Mean anomaly: 160.2507 deg

Mean motion: 14.08839733 rev/day

Mean motion (dot): 0.00004936 rev/day2

B* drag term: 0.0019628 1/REarth

Two-line elements (TLE)

Creation date: Dec. 12, 2025, 7:16 a.m.

Reference frame: TEME

Reference center: EARTH

Epoch: Dec. 11, 2025, 8:41 p.m. UTC

TLE line 0: 0 SL-24 DEB

TLE line 1: 1 37586U 04025L 25345.86184330 .00004936 00000-0 19628-2 0 9992

TLE line 2: 2 37586 98.1687 18.0884 0288282 198.7853 160.2507 14.08839733780417

Live tracking on map

Real-time ground track for satellite SL-24 DEB.

In-orbit conjunctions

A list of the most updated potential collisions computed for object SL-24 DEB.

Target Orbit TCA Probability of collision Miss distance Type
SL-8 DEB LEO 2025-12-12 19:16:13 0.0003371877 23.0 (m) DEBRIS
SCOUT B-1 R/B SSO 2025-12-07 14:20:47 0.0003108093 315.0 (m) ROCKET BODY
NOAA 11 SSO 2025-06-13 01:58:13 0.0002450955 606.0 (m) PAYLOAD
ORBVIEW 1 (MICROLAB) LEO 2025-03-10 00:27:23 0.0004074589 103.0 (m) PAYLOAD
CZ-6A DEB LEO 2025-02-05 23:13:04 0.0003974624 113.0 (m) DEBRIS

Associated space launch

AprizeSat, is a constellation of small Low-Earth-Orbit satellites (64 satellites planned) to achieve a global communication system of data transmission and fixed and mobile asset tracking and monitoring (GMPCS).

SL-24 DEB was lifted into orbit during the mission ‘Dnepr | Aprizesat-2’, on board a Dnepr space rocket.

The launch took place on June 29, 2004, 6:30 a.m. from 109/95.

For more information about the launch, click the button.

Launch to space Dnepr | Aprizesat-2
Dnepr | Aprizesat-2

Agency: N/A

Status: Launch Successful

Launch date: June 29, 2004, 6:30 a.m. UTC

Rocket: Dnepr

Launch pad: 109/95

Location: Baikonur Cosmodrome, Republic of Kazakhstan

...

Latest news about this satellite

There are no fresh news available about this satellite. Check back as we update our databases every day.


Newsletter sign-up

Weekly statistics, charts and insights to help you stay on top of the space industry.